Location: Ústí nad Labem
(50.6611°N, 14.0531°E)
Time: 21:16:15
(UTC+02:00)

Envisat - Pass Details

Date: 28 February 2024
Orbit: 762 x 764 km, 98.3° (Epoch: 13 April)

Event Time Altitude Azimuth Distance (km) Brightness Sun altitude
Rises 05:54:32 0° 0° (N) 3,244 6.2 -9.8°
Reaches altitude 10° 05:59:03 10° 323° (NW) 2,311 5.1 -9.1°
Maximum altitude 05:59:59 11° 312° (NW) 2,276 5.0 -8.9°
Drops below altitude 10° 06:00:55 10° 301° (WNW) 2,308 5.0 -8.8°
Enters shadow 06:01:43 - 292° (WNW) 2,389 5.0 -8.6°
